Wind_Speed
6 5 7 7 6 5 6 6 6 7 5 1 2 5 8 11 12 12 12 10 8 8 8 8 7 7 7 5 5 5 4 3 4 4 7 10 12 14 15 14 15 15 13 13 14
8 6 5 7 8 8 8 7 8 9 9 4 3 5 6 6 9 11 10 9 9 9 8 7 7 7 7 8 9 10 9 6 4 4 6 8 10 12 14 11 11 15 15 16 17
7 6 5 4 5 5 5 5 7 8 10 7 4 4 4 6 8 9 10 10 9 9 8 8 8 7 7 7 9 10 11 9 6 4 4 6 8 10 12 12 14 15 18 19 20
8 8 7 6 5 4 2 2 3 5 7 7 5 5 6 7 8 9 10 11 11 9 9 9 8 7 7 7 8 8 9 9 7 6 5 4 4 7 9 11 12 14 15 16 17
8 9 9 7 6 4 3 3 2 1 1 3 4 4 5 7 8 8 9 10 11 12 11 9 8 7 8 8 7 7 7 7 6 6 6 6 6 8 8 7 9 11 13 14 15
7 7 7 8 8 8 7 8 8 5 2 1 1 2 3 4 7 9 10 8 9 10 11 11 10 9 8 8 8 7 6 6 6 5 6 7 6 7 7 9 11 11 12 14 15
7 6 6 7 10 9 9 8 9 8 7 5 4 3 2 2 5 7 9 10 9 10 10 11 10 9 9 8 8 7 7 6 6 7 8 8 7 7 8 9 10 11 12 13 15
6 5 6 7 7 7 9 9 10 11 11 10 8 7 7 7 6 7 9 11 11 12 11 11 10 10 9 9 8 6 6 5 5 7 8 8 9 10 10 11 11 11 12 12 14
8 6 3 4 4 6 7 9 10 10 12 12 11 11 11 10 10 10 12 14 14 14 14 12 11 10 9 9 8 6 5 5 4 5 6 6 8 9 10 11 12 13 15 15 16
6 9 5 4 5 4 4 5 5 5 7 10 11 12 12 12 12 13 15 17 18 17 16 14 13 11 11 11 10 10 9 9 8 8 9 9 9 10 11 12 13 13 14 15 16
2 2 1 2 2 2 3 4 5 6 7 8 9 10 11 12 14 17 19 20 20 19 18 16 15 14 13 12 12 12 12 12 11 13 13 12 12 13 13 14 14 15 15 16 16
0 2 3 4 4 5 6 7 7 7 8 10 11 12 14 16 19 21 22 22 21 20 19 19 16 17 16 14 14 15 15 14 15 17 17 18 18 18 18 18 17 18 19 19 18
3 4 5 6 7 9 11 12 13 13 14 14 16 17 19 20 20 21 22 21 20 19 19 19 17 16 16 16 16 17 18 18 19 21 22 23 24 23 22 23 23 23 23 23 23
7 8 8 9 9 9 9 10 11 11 13 14 15 16 17 19 20 20 21 22 20 20 18 17 18 17 18 18 19 18 20 21 22 23 27 24 32 30 24 27 27 27 26 25 24
5 6 6 7 8 8 9 10 11 13 12 13 14 13 16 17 17 18 19 20 20 21 20 18 20 21 21 21 23 22 23 25 26 26 30 29 29 37 33 24 29 28 27 26 26
7 8 9 9 10 10 10 10 11 12 13 13 14 15 16 18 19 19 18 19 19 20 20 20 19 20 21 23 23 24 24 25 27 29 31 30 30 36 30 28 27 28 29 29 28
9 9 10 11 12 11 11 11 13 14 14 14 16 16 19 21 22 23 22 23 23 24 23 24 24 23 23 24 25 25 26 28 29 28 32 34 32 35 29 29 29 30 30 30 30
10 10 11 10 12 14 15 15 15 15 16 16 18 19 21 23 22 23 24 24 27 28 30 28 28 25 27 28 28 27 28 29 31 29 34 34 37 36 31 32 31 30 30 30 31
12 12 12 12 12 14 16 17 19 20 20 20 21 22 22 23 23 24 24 24 25 27 29 28 32 28 28 28 29 29 30 28 31 30 33 34 36 39 35 31 30 30 31 31 31
15 14 14 15 15 17 18 18 20 23 24 26 26 28 28 25 28 28 27 29 29 30 31 30 33 30 29 31 32 31 31 31 33 34 34 32 35 38 35 34 29 30 29 31 31
19 19 18 18 18 19 19 18 21 23 27 29 31 32 32 31 33 33 32 32 32 32 33 32 34 35 34 31 33 33 33 32 32 33 35 34 34 36 37 39 38 34 33 35 36
21 21 22 22 22 22 22 23 23 25 27 29 31 33 34 35 35 36 33 35 35 34 33 33 35 35 39 35 35 34 33 34 35 34 35 36 36 37 38 38 40 39 37 38 39
23 24 23 24 25 24 24 25 27 28 29 31 32 33 35 35 36 35 35 35 36 36 36 35 37 36 38 38 38 37 34 35 34 35 34 36 39 39 40 39 39 38 37 37 37
25 25 25 25 27 25 26 27 29 29 31 33 34 34 35 35 37 38 37 37 35 34 34 35 35 34 35 39 38 37 36 35 35 36 35 37 38 36 37 38 36 38 38 40 40
28 28 26 26 28 29 29 29 30 31 33 34 34 35 36 36 37 39 40 37 34 33 34 35 36 37 36 39 37 37 36 35 34 34 36 37 37 38 39 37 38 40 40 41 42
27 27 27 28 30 31 33 32 32 34 35 33 33 34 36 37 39 38 38 34 32 33 34 36 37 36 37 38 36 37 35 38 37 35 35 36 38 40 37 39 41 43 45 46 49
27 29 29 31 34 36 35 35 34 34 33 35 37 38 37 37 36 34 33 34 34 34 36 37 37 37 39 38 38 39 36 36 36 36 37 39 39 40 41 43 45 46 48 49 51
Wind_Direction
154 134 108 101 131 144 111 86 61 47 32 339 97 50 55 49 42 38 34 28 19 8 2 1 9 21 26 14 8 15 4 337 290 270 252 249 246 246 248 248 254 269 274 273 273
172 168 142 114 116 111 102 90 65 43 32 52 117 57 47 39 37 35 33 22 18 14 12 4 12 18 24 24 25 25 20 13 345 297 264 260 251 250 254 264 274 268 272 274 277
197 192 181 155 131 113 106 92 73 52 42 57 87 64 52 36 35 34 28 21 13 10 6 11 17 10 11 15 20 21 17 16 16 350 308 278 273 268 270 264 269 269 275 276 281
215 214 208 208 193 179 137 107 64 55 48 59 85 85 76 61 48 38 28 23 16 4 1 3 5 359 356 2 7 15 17 24 22 11 354 324 305 286 287 285 286 289 297 301 295
234 224 226 227 227 228 243 256 261 350 89 64 84 92 85 63 48 32 21 20 14 12 3 356 352 351 350 350 354 2 8 14 11 359 346 335 327 303 302 302 302 307 307 306 307
256 249 236 239 237 235 238 250 258 266 261 229 39 64 62 56 37 26 18 2 1 4 3 357 353 345 341 341 342 347 354 351 350 350 351 349 342 327 316 312 312 320 321 327 324
246 253 261 258 243 239 246 253 265 265 265 259 258 277 307 347 348 352 353 357 345 341 341 344 340 341 338 337 337 341 346 345 334 329 331 338 341 334 327 322 321 324 323 327 327
253 251 272 268 264 251 252 258 260 261 260 260 266 265 283 289 300 312 330 338 330 330 327 322 321 322 327 329 327 330 340 356 352 341 338 335 326 328 324 322 320 320 321 327 328
240 209 243 258 254 262 261 257 258 257 262 263 265 265 269 277 286 291 310 320 323 320 319 309 306 304 303 306 303 296 298 309 331 337 333 334 330 333 334 333 330 327 325 325 325
211 214 226 283 258 250 261 268 275 284 278 276 275 270 270 278 284 292 302 309 313 311 309 299 294 293 294 289 285 279 282 291 296 300 303 309 312 315 316 317 320 322 323 323 323
94 166 235 254 270 286 294 296 293 286 288 285 278 272 277 281 288 292 296 302 303 303 302 293 288 290 281 277 275 273 275 279 283 283 286 287 290 294 297 301 306 310 312 313 312
23 302 308 312 314 309 302 296 297 296 296 293 289 286 283 284 287 293 297 299 299 296 292 290 292 286 284 278 272 269 269 271 272 278 281 283 286 287 289 291 293 295 297 299 300
266 282 287 288 291 292 293 295 294 294 289 288 289 288 288 288 289 291 293 293 292 290 289 289 286 283 279 274 271 269 273 276 277 280 280 284 283 285 286 288 289 289 289 289 288
263 266 270 275 279 277 285 290 291 290 287 285 286 287 291 290 293 295 296 294 291 289 286 286 284 281 279 279 276 275 275 279 280 281 281 283 288 281 280 285 290 288 287 286 282
255 265 267 265 266 272 282 290 292 291 291 293 295 298 296 296 297 300 297 295 292 288 285 282 282 281 281 278 280 281 281 281 281 281 283 286 281 286 287 293 286 288 285 283 282
263 275 278 283 283 284 286 288 292 296 295 297 302 306 306 305 303 299 296 294 291 289 288 287 282 279 279 278 277 278 279 280 281 283 285 282 286 284 294 291 285 284 284 283 280
271 278 288 294 293 290 286 289 291 295 303 301 304 306 308 307 307 304 302 298 293 291 292 287 287 288 286 284 285 285 286 286 285 284 283 286 285 290 295 285 284 283 281 281 280
279 280 282 286 288 289 291 288 293 291 292 298 298 302 304 303 303 302 303 304 300 296 294 292 285 287 288 287 288 287 287 286 288 287 293 290 289 292 287 285 283 281 280 278 277
277 280 280 283 286 288 290 295 295 287 290 290 293 298 301 302 303 304 307 308 301 298 294 293 291 291 289 288 288 290 288 286 283 280 276 280 282 282 281 281 279 278 277 277 275
277 280 281 284 287 289 290 295 288 286 286 289 293 294 295 294 296 299 303 305 303 301 297 294 291 290 287 286 287 287 284 282 281 283 282 284 279 283 286 285 284 281 280 279 278
274 277 278 280 284 286 291 290 291 289 286 287 288 288 291 295 296 298 301 300 300 297 295 294 292 292 288 289 285 282 284 286 283 283 281 281 274 281 285 286 288 287 286 284 281
274 273 276 280 282 286 288 288 286 286 286 285 286 288 289 291 294 297 300 299 298 296 294 293 289 287 287 285 281 283 286 283 281 280 279 279 279 279 281 284 287 290 288 283 282
276 273 276 279 283 284 287 290 290 287 285 286 287 287 287 290 293 295 299 298 297 292 291 288 287 286 285 285 288 287 283 281 279 278 280 280 282 284 287 287 287 286 285 285 284
278 275 277 279 283 284 288 289 287 286 287 287 288 288 290 291 293 295 297 297 293 289 288 287 286 285 286 286 286 284 282 282 282 284 283 283 283 285 288 288 288 287 286 286 287
282 277 277 281 283 286 287 288 287 287 288 289 289 290 290 290 292 294 294 295 292 289 286 286 286 287 285 285 286 286 284 285 285 285 285 284 284 284 285 286 284 285 286 286 286
276 277 280 285 287 287 289 287 288 290 290 289 290 289 291 292 290 294 292 291 288 286 286 286 288 288 286 287 285 282 281 283 283 281 282 282 282 287 287 284 287 286 286 288 287
278 280 281 285 288 289 289 291 293 291 290 292 293 293 293 291 291 290 290 287 287 287 287 287 288 288 287 286 282 282 287 283 282 283 283 282 283 281 283 285 285 286 286 285 287
Height
5856 5857 5858 5857 5858 5859 5859 5859 5859 5858 5858 5858 5858 5859 5858 5858 5857 5856 5855 5856 5856 5856 5855 5855 5854 5852 5851 5851 5850 5849 5848 5847 5847 5847 5847 5848 5849 5849 5850 5852 5852 5853 5854 5855 5855
5855 5857 5858 5858 5859 5860 5859 5859 5860 5859 5859 5858 5859 5859 5859 5860 5859 5858 5858 5858 5857 5856 5856 5856 5854 5853 5852 5851 5850 5849 5847 5847 5847 5847 5848 5848 5848 5849 5849 5851 5853 5851 5852 5853 5853
5854 5855 5856 5857 5858 5859 5860 5860 5860 5861 5860 5859 5859 5860 5861 5860 5860 5860 5859 5858 5858 5857 5857 5856 5855 5854 5853 5852 5851 5849 5849 5848 5847 5847 5847 5847 5848 5848 5848 5849 5849 5850 5850 5850 5850
5853 5854 5855 5857 5858 5859 5860 5861 5861 5862 5862 5861 5862 5861 5862 5862 5862 5860 5860 5859 5859 5858 5857 5857 5856 5855 5854 5852 5852 5851 5850 5848 5848 5847 5847 5847 5847 5846 5847 5847 5847 5847 5847 5847 5847
5852 5853 5855 5856 5857 5858 5859 5860 5862 5863 5863 5863 5863 5863 5863 5863 5862 5861 5860 5860 5859 5858 5858 5857 5856 5855 5854 5853 5852 5851 5850 5849 5849 5848 5847 5847 5847 5847 5846 5846 5846 5846 5845 5844 5843
5852 5853 5853 5855 5856 5857 5858 5860 5861 5862 5862 5863 5863 5863 5863 5863 5861 5861 5861 5860 5860 5859 5858 5857 5856 5855 5854 5853 5853 5852 5851 5850 5849 5849 5848 5847 5847 5847 5847 5846 5845 5845 5844 5843 5841
5851 5852 5853 5854 5855 5856 5857 5858 5859 5860 5861 5861 5862 5862 5862 5862 5861 5861 5861 5860 5859 5859 5858 5856 5856 5855 5854 5853 5852 5851 5851 5850 5849 5849 5848 5848 5848 5847 5846 5845 5845 5844 5843 5841 5840
5850 5851 5852 5853 5854 5855 5856 5857 5857 5858 5859 5860 5860 5860 5861 5861 5860 5860 5860 5859 5858 5858 5857 5856 5855 5854 5853 5852 5851 5851 5850 5850 5849 5848 5847 5847 5846 5845 5844 5844 5843 5842 5841 5840 5838
5848 5849 5851 5852 5853 5854 5854 5855 5856 5856 5857 5857 5858 5859 5859 5859 5859 5859 5858 5858 5857 5856 5854 5854 5853 5852 5851 5851 5850 5849 5849 5848 5847 5847 5846 5846 5845 5844 5843 5842 5841 5840 5838 5837 5836
5847 5849 5850 5851 5852 5853 5853 5854 5854 5854 5855 5855 5856 5858 5858 5858 5857 5857 5856 5855 5854 5852 5852 5851 5850 5849 5848 5848 5848 5846 5845 5845 5845 5845 5844 5843 5843 5842 5841 5840 5838 5837 5836 5834 5833
5847 5848 5849 5850 5851 5851 5852 5852 5853 5854 5853 5853 5854 5854 5854 5855 5854 5853 5852 5852 5850 5849 5849 5847 5847 5846 5844 5844 5843 5843 5842 5842 5842 5842 5841 5840 5840 5839 5838 5836 5835 5834 5833 5831 5830
5846 5847 5848 5849 5849 5850 5850 5851 5851 5852 5852 5852 5852 5851 5851 5851 5850 5849 5848 5848 5847 5846 5844 5844 5843 5842 5842 5841 5841 5840 5839 5839 5839 5838 5838 5836 5836 5835 5834 5833 5831 5830 5829 5827 5825
5845 5846 5846 5847 5848 5849 5849 5849 5849 5849 5850 5849 5849 5848 5848 5848 5846 5845 5844 5843 5842 5841 5840 5839 5840 5838 5838 5837 5837 5837 5836 5836 5836 5834 5832 5832 5831 5830 5829 5828 5827 5825 5824 5823 5821
5844 5844 5845 5845 5847 5846 5846 5847 5847 5846 5846 5846 5845 5844 5844 5843 5843 5841 5840 5840 5838 5837 5835 5836 5835 5835 5834 5834 5833 5833 5831 5831 5830 5829 5827 5828 5823 5823 5825 5822 5821 5819 5818 5816 5815
5842 5843 5843 5844 5843 5843 5844 5843 5843 5843 5844 5844 5842 5841 5840 5840 5839 5837 5836 5835 5834 5832 5833 5832 5831 5830 5830 5829 5829 5829 5828 5826 5825 5823 5821 5820 5819 5812 5815 5819 5814 5812 5811 5809 5808
5839 5841 5841 5841 5841 5841 5841 5840 5841 5841 5840 5840 5839 5838 5838 5836 5834 5832 5831 5830 5829 5828 5827 5827 5826 5825 5825 5824 5823 5822 5821 5820 5818 5817 5815 5814 5814 5808 5811 5810 5808 5806 5804 5803 5802
5836 5837 5837 5838 5838 5838 5837 5837 5839 5836 5837 5837 5836 5835 5833 5832 5831 5829 5828 5827 5826 5824 5824 5822 5822 5821 5820 5819 5818 5817 5815 5813 5813 5811 5807 5804 5804 5803 5803 5802 5801 5799 5797 5796 5794
5833 5833 5834 5834 5834 5834 5834 5835 5834 5834 5833 5832 5832 5831 5830 5828 5827 5825 5824 5824 5821 5819 5816 5816 5815 5816 5815 5813 5812 5810 5809 5807 5803 5802 5799 5797 5795 5797 5796 5793 5792 5791 5790 5789 5787
5829 5830 5830 5830 5830 5830 5830 5830 5831 5830 5830 5828 5827 5826 5826 5824 5823 5821 5820 5819 5817 5815 5813 5811 5807 5808 5808 5806 5805 5804 5801 5800 5796 5796 5792 5792 5790 5786 5787 5787 5785 5784 5782 5781 5779
5825 5825 5826 5825 5825 5825 5826 5826 5824 5825 5824 5823 5823 5821 5819 5819 5816 5814 5815 5813 5811 5810 5807 5806 5802 5802 5801 5799 5798 5796 5794 5792 5788 5787 5785 5783 5779 5778 5779 5778 5778 5776 5775 5774 5772
5820 5821 5822 5821 5821 5821 5821 5821 5820 5819 5819 5818 5816 5815 5813 5812 5810 5809 5809 5806 5804 5801 5799 5798 5796 5796 5793 5793 5790 5788 5785 5785 5781 5779 5776 5776 5773 5771 5770 5768 5767 5768 5767 5765 5763
5814 5815 5815 5816 5816 5815 5815 5814 5813 5812 5811 5811 5809 5808 5807 5805 5804 5802 5801 5798 5796 5794 5792 5790 5787 5786 5784 5784 5781 5780 5778 5775 5773 5772 5769 5766 5766 5761 5761 5761 5759 5759 5757 5754 5753
5808 5809 5809 5808 5809 5809 5808 5808 5807 5806 5804 5804 5802 5801 5799 5798 5796 5794 5793 5790 5788 5786 5783 5782 5779 5777 5776 5776 5774 5772 5770 5767 5763 5761 5761 5756 5757 5753 5752 5751 5749 5748 5746 5744 5742
5801 5802 5802 5802 5802 5802 5801 5801 5800 5799 5798 5797 5795 5793 5791 5790 5788 5786 5786 5782 5779 5776 5775 5772 5771 5768 5768 5764 5764 5763 5761 5759 5756 5753 5752 5748 5746 5747 5743 5741 5739 5737 5735 5734 5732
5794 5795 5795 5794 5795 5794 5794 5793 5792 5791 5789 5788 5787 5785 5783 5781 5779 5777 5774 5773 5770 5768 5766 5764 5763 5761 5758 5755 5755 5753 5751 5749 5747 5744 5742 5741 5737 5735 5734 5732 5729 5727 5724 5722 5720
5786 5787 5788 5788 5787 5787 5786 5785 5783 5781 5781 5779 5778 5775 5774 5772 5769 5768 5765 5763 5762 5759 5756 5754 5752 5752 5749 5746 5745 5743 5741 5739 5737 5735 5732 5730 5727 5725 5722 5718 5716 5714 5712 5710 5707
5777 5779 5780 5780 5779 5779 5777 5776 5775 5773 5773 5771 5770 5767 5765 5762 5760 5758 5756 5754 5752 5750 5748 5746 5743 5741 5739 5737 5735 5734 5732 5729 5727 5725 5722 5719 5717 5714 5711 5708 5705 5701 5698 5695 5693